Year,Month,Day,Hour,Minute,Value (Times are PST for temperature in C)
2008,07,03,00,00,12.90
2008,07,03,00,01,12.90
2008,07,03,00,02,12.90
2008,07,03,00,03,13.00
2008,07,03,00,04,13.00
2008,07,03,00,05,13.00
2008,07,03,00,06,13.00
2008,07,03,00,07,13.00
2008,07,03,00,08,13.00
2008,07,03,00,09,13.00
2008,07,03,00,10,13.10
2008,07,03,00,11,13.10
2008,07,03,00,12,13.10
2008,07,03,00,13,13.10
2008,07,03,00,14,13.00
2008,07,03,00,15,13.00
2008,07,03,00,16,13.00
2008,07,03,00,17,13.00
2008,07,03,00,18,13.00
2008,07,03,00,19,13.00
2008,07,03,00,20,13.00
2008,07,03,00,21,13.00
2008,07,03,00,22,13.00
2008,07,03,00,23,13.00
2008,07,03,00,24,13.00
2008,07,03,00,25,13.00
2008,07,03,00,26,13.00
2008,07,03,00,27,13.10
2008,07,03,00,28,13.00
2008,07,03,00,29,13.00
2008,07,03,00,30,13.00
2008,07,03,00,31,13.00
2008,07,03,00,32,12.90
2008,07,03,00,33,12.90
2008,07,03,00,34,12.80
2008,07,03,00,35,12.80
2008,07,03,00,36,12.80
2008,07,03,00,37,12.80
2008,07,03,00,38,12.80
2008,07,03,00,39,12.80
2008,07,03,00,40,12.90
2008,07,03,00,41,13.00
2008,07,03,00,42,13.10
2008,07,03,00,43,13.30
2008,07,03,00,44,13.40
2008,07,03,00,45,13.60
2008,07,03,00,46,13.70
2008,07,03,00,47,13.90
2008,07,03,00,48,14.10
2008,07,03,00,49,14.20
2008,07,03,00,50,14.40
2008,07,03,00,51,14.60
2008,07,03,00,52,14.80
2008,07,03,00,53,14.80
2008,07,03,00,54,15.00
2008,07,03,00,55,15.00
2008,07,03,00,56,15.10
2008,07,03,00,57,15.20
2008,07,03,00,58,15.20
2008,07,03,00,59,15.30
2008,07,03,01,00,15.30
2008,07,03,01,01,15.30
2008,07,03,01,02,15.40
2008,07,03,01,03,15.40
2008,07,03,01,04,15.40
2008,07,03,01,05,15.40
2008,07,03,01,06,15.40
2008,07,03,01,07,15.40
2008,07,03,01,08,15.50
2008,07,03,01,09,15.60
2008,07,03,01,10,15.60
2008,07,03,01,11,15.60
2008,07,03,01,12,15.60
2008,07,03,01,13,15.60
2008,07,03,01,14,15.50
2008,07,03,01,15,15.50
2008,07,03,01,16,15.40
2008,07,03,01,17,15.40
2008,07,03,01,18,15.40
2008,07,03,01,19,15.30
2008,07,03,01,20,15.30
2008,07,03,01,21,15.30
2008,07,03,01,22,15.30
2008,07,03,01,23,15.20
2008,07,03,01,24,15.10
2008,07,03,01,25,15.00
2008,07,03,01,26,15.00
2008,07,03,01,27,14.90
2008,07,03,01,28,14.90
2008,07,03,01,29,14.90
2008,07,03,01,30,14.90
2008,07,03,01,31,15.00
2008,07,03,01,32,15.00
2008,07,03,01,33,15.00
2008,07,03,01,34,15.00
2008,07,03,01,35,15.00
2008,07,03,01,36,15.00
2008,07,03,01,37,15.00
2008,07,03,01,38,14.90
2008,07,03,01,39,14.90
2008,07,03,01,40,14.90
2008,07,03,01,41,14.80
2008,07,03,01,42,14.70
2008,07,03,01,43,14.60
2008,07,03,01,44,14.60
2008,07,03,01,45,14.60
2008,07,03,01,46,14.50
2008,07,03,01,47,14.50
2008,07,03,01,48,14.50
2008,07,03,01,49,14.50
2008,07,03,01,50,14.50
2008,07,03,01,51,14.40
2008,07,03,01,52,14.30
2008,07,03,01,53,14.20
2008,07,03,01,54,14.10
2008,07,03,01,55,13.90
2008,07,03,01,56,13.80
2008,07,03,01,57,13.80
2008,07,03,01,58,13.80
2008,07,03,01,59,13.80
2008,07,03,02,00,13.90
2008,07,03,02,01,13.90
2008,07,03,02,02,13.90
2008,07,03,02,03,14.00
2008,07,03,02,04,14.00
2008,07,03,02,05,14.10
2008,07,03,02,06,14.10
2008,07,03,02,07,14.10
2008,07,03,02,08,14.10
2008,07,03,02,09,14.20
2008,07,03,02,10,14.20
2008,07,03,02,11,14.20
2008,07,03,02,12,14.20
2008,07,03,02,13,14.20
2008,07,03,02,14,14.20
2008,07,03,02,15,14.20
2008,07,03,02,16,14.20
2008,07,03,02,17,14.20
2008,07,03,02,18,14.20
2008,07,03,02,19,14.20
2008,07,03,02,20,14.20
2008,07,03,02,21,14.20
2008,07,03,02,22,14.20
2008,07,03,02,23,14.20
2008,07,03,02,24,14.20
2008,07,03,02,25,14.20
2008,07,03,02,26,14.20
2008,07,03,02,27,14.20
2008,07,03,02,28,14.20
2008,07,03,02,29,14.20
2008,07,03,02,30,14.30
2008,07,03,02,31,14.30
2008,07,03,02,32,14.30
2008,07,03,02,33,14.40
2008,07,03,02,34,14.40
2008,07,03,02,35,14.40
2008,07,03,02,36,14.40
2008,07,03,02,37,14.40
2008,07,03,02,38,14.40
2008,07,03,02,39,14.40
2008,07,03,02,40,14.40
2008,07,03,02,41,14.40
2008,07,03,02,42,14.40
2008,07,03,02,43,14.40
2008,07,03,02,44,14.40
2008,07,03,02,45,14.40
2008,07,03,02,46,14.40
2008,07,03,02,47,14.40
2008,07,03,02,48,14.40
2008,07,03,02,49,14.50
2008,07,03,02,50,14.50
2008,07,03,02,51,14.50
2008,07,03,02,52,14.50
2008,07,03,02,53,14.50
2008,07,03,02,54,14.50
2008,07,03,02,55,14.50
2008,07,03,02,56,14.50
2008,07,03,02,57,14.50
2008,07,03,02,58,14.50
2008,07,03,02,59,14.50
2008,07,03,03,00,14.50
2008,07,03,03,01,14.40
2008,07,03,03,02,14.40
2008,07,03,03,03,14.40
2008,07,03,03,04,14.40
2008,07,03,03,05,14.30
2008,07,03,03,06,14.30
2008,07,03,03,07,14.30
2008,07,03,03,08,14.20
2008,07,03,03,09,14.20
2008,07,03,03,10,14.20
2008,07,03,03,11,14.20
2008,07,03,03,12,14.20
2008,07,03,03,13,14.20
2008,07,03,03,14,14.20
2008,07,03,03,15,14.20
2008,07,03,03,16,14.20
2008,07,03,03,17,14.20
2008,07,03,03,18,14.20
2008,07,03,03,19,14.20
2008,07,03,03,20,14.20
2008,07,03,03,21,14.20
2008,07,03,03,22,14.20
2008,07,03,03,23,14.20
2008,07,03,03,24,14.20
2008,07,03,03,25,14.30
2008,07,03,03,26,14.30
2008,07,03,03,27,14.40
2008,07,03,03,28,14.40
2008,07,03,03,29,14.50
2008,07,03,03,30,14.50
2008,07,03,03,31,14.60
2008,07,03,03,32,14.70
2008,07,03,03,33,14.70
2008,07,03,03,34,14.80
2008,07,03,03,35,14.80
2008,07,03,03,36,14.80
2008,07,03,03,37,14.80
2008,07,03,03,38,14.90
2008,07,03,03,39,14.90
2008,07,03,03,40,15.00
2008,07,03,03,41,15.00
2008,07,03,03,42,15.00
2008,07,03,03,43,15.00
2008,07,03,03,44,15.00
2008,07,03,03,45,15.00
2008,07,03,03,46,15.00
2008,07,03,03,47,15.00
2008,07,03,03,48,15.00
2008,07,03,03,49,14.90
2008,07,03,03,50,14.90
2008,07,03,03,51,14.90
2008,07,03,03,52,14.80
2008,07,03,03,53,14.80
2008,07,03,03,54,14.80
2008,07,03,03,55,14.70
2008,07,03,03,56,14.70
2008,07,03,03,57,14.60
2008,07,03,03,58,14.60
2008,07,03,03,59,14.60
2008,07,03,04,00,14.70
2008,07,03,04,01,14.70
2008,07,03,04,02,14.70
2008,07,03,04,03,14.70
2008,07,03,04,04,14.80
2008,07,03,04,05,14.80
2008,07,03,04,06,14.80
2008,07,03,04,07,14.80
2008,07,03,04,08,14.80
2008,07,03,04,09,14.80
2008,07,03,04,10,14.80
2008,07,03,04,11,14.80
2008,07,03,04,12,14.80
2008,07,03,04,13,14.80
2008,07,03,04,14,14.80
2008,07,03,04,15,14.80
2008,07,03,04,16,14.80
2008,07,03,04,17,14.80
2008,07,03,04,18,14.80
2008,07,03,04,19,14.80
2008,07,03,04,20,14.80
2008,07,03,04,21,14.70
2008,07,03,04,22,14.70
2008,07,03,04,23,14.60
2008,07,03,04,24,14.60
2008,07,03,04,25,14.50
2008,07,03,04,26,14.50
2008,07,03,04,27,14.50
2008,07,03,04,28,14.50
2008,07,03,04,29,14.50
2008,07,03,04,30,14.50
2008,07,03,04,31,14.50
2008,07,03,04,32,14.50
2008,07,03,04,33,14.50
2008,07,03,04,34,14.50
2008,07,03,04,35,14.50
2008,07,03,04,36,14.50
2008,07,03,04,37,14.50
2008,07,03,04,38,14.50
2008,07,03,04,39,14.50
2008,07,03,04,40,14.50
2008,07,03,04,41,14.50
2008,07,03,04,42,14.50
2008,07,03,04,43,14.50
2008,07,03,04,44,14.50
2008,07,03,04,45,14.40
2008,07,03,04,46,14.40
2008,07,03,04,47,14.40
2008,07,03,04,48,14.50
2008,07,03,04,49,14.50
2008,07,03,04,50,14.50
2008,07,03,04,51,14.50
2008,07,03,04,52,14.60
2008,07,03,04,53,14.60
2008,07,03,04,54,14.60
2008,07,03,04,55,14.60
2008,07,03,04,56,14.60
2008,07,03,04,57,14.60
2008,07,03,04,58,14.60
2008,07,03,04,59,14.60
2008,07,03,05,00,14.60
2008,07,03,05,01,14.60
2008,07,03,05,02,14.60
2008,07,03,05,03,14.70
2008,07,03,05,04,14.70
2008,07,03,05,05,14.70
2008,07,03,05,06,14.80
2008,07,03,05,07,14.80
2008,07,03,05,08,14.80
2008,07,03,05,09,14.80
2008,07,03,05,10,14.80
2008,07,03,05,11,14.90
2008,07,03,05,12,14.90
2008,07,03,05,13,14.90
2008,07,03,05,14,14.90
2008,07,03,05,15,14.90
2008,07,03,05,16,15.00
2008,07,03,05,17,15.00
2008,07,03,05,18,15.00
2008,07,03,05,19,15.10
2008,07,03,05,20,15.10
2008,07,03,05,21,15.10
2008,07,03,05,22,15.10
2008,07,03,05,23,15.20
2008,07,03,05,24,15.20
2008,07,03,05,25,15.20
2008,07,03,05,26,15.20
2008,07,03,05,27,15.30
2008,07,03,05,28,15.30
2008,07,03,05,29,15.30
2008,07,03,05,30,15.30
2008,07,03,05,31,15.30
2008,07,03,05,32,15.30
2008,07,03,05,33,15.30
2008,07,03,05,34,15.30
2008,07,03,05,35,15.30
2008,07,03,05,36,15.40
2008,07,03,05,37,15.40
2008,07,03,05,38,15.40
2008,07,03,05,39,15.40
2008,07,03,05,40,15.50
2008,07,03,05,41,15.50
2008,07,03,05,42,15.50
2008,07,03,05,43,15.50
2008,07,03,05,44,15.60
2008,07,03,05,45,15.60
2008,07,03,05,46,15.60
2008,07,03,05,47,15.60
2008,07,03,05,48,15.60
2008,07,03,05,49,15.60
2008,07,03,05,50,15.70
2008,07,03,05,51,15.70
2008,07,03,05,52,15.70
2008,07,03,05,53,15.70
2008,07,03,05,54,15.80
2008,07,03,05,55,15.80
2008,07,03,05,56,15.80
2008,07,03,05,57,15.80
2008,07,03,05,58,15.80
2008,07,03,05,59,15.80
2008,07,03,06,00,15.80
2008,07,03,06,01,15.80
2008,07,03,06,02,15.80
2008,07,03,06,03,15.80
2008,07,03,06,04,15.80
2008,07,03,06,05,15.80
2008,07,03,06,06,15.80
2008,07,03,06,07,15.80
2008,07,03,06,08,15.80
2008,07,03,06,09,15.80
2008,07,03,06,10,15.80
2008,07,03,06,11,15.70
2008,07,03,06,12,15.70
2008,07,03,06,13,15.60
2008,07,03,06,14,15.60
2008,07,03,06,15,15.50
2008,07,03,06,16,15.40
2008,07,03,06,17,15.40
2008,07,03,06,18,15.30
2008,07,03,06,19,15.30
2008,07,03,06,20,15.30
2008,07,03,06,21,15.20
2008,07,03,06,22,15.20
2008,07,03,06,23,15.10
2008,07,03,06,24,15.10
2008,07,03,06,25,15.10
2008,07,03,06,26,15.00
2008,07,03,06,27,15.00
2008,07,03,06,28,14.90
2008,07,03,06,29,14.80
2008,07,03,06,30,14.80
2008,07,03,06,31,14.80
2008,07,03,06,32,14.70
2008,07,03,06,33,14.70
2008,07,03,06,34,14.60
2008,07,03,06,35,14.60
2008,07,03,06,36,14.50
2008,07,03,06,37,14.50
2008,07,03,06,38,14.40
2008,07,03,06,39,14.40
2008,07,03,06,40,14.30
2008,07,03,06,41,14.20
2008,07,03,06,42,14.20
2008,07,03,06,43,14.10
2008,07,03,06,44,14.00
2008,07,03,06,45,13.90
2008,07,03,06,46,13.80
2008,07,03,06,47,13.70
2008,07,03,06,48,13.70
2008,07,03,06,49,13.60
2008,07,03,06,50,13.60
2008,07,03,06,51,13.60
2008,07,03,06,52,13.60
2008,07,03,06,53,13.60
2008,07,03,06,54,13.60
2008,07,03,06,55,13.50
2008,07,03,06,56,13.50
2008,07,03,06,57,13.50
2008,07,03,06,58,13.50
2008,07,03,06,59,13.50
2008,07,03,07,00,13.50
2008,07,03,07,01,13.50
2008,07,03,07,02,13.50
2008,07,03,07,03,13.50
2008,07,03,07,04,13.50
2008,07,03,07,05,13.50
2008,07,03,07,06,13.50
2008,07,03,07,07,13.50
2008,07,03,07,08,13.50
2008,07,03,07,09,13.60
2008,07,03,07,10,13.60
2008,07,03,07,11,13.60
2008,07,03,07,12,13.60
2008,07,03,07,13,13.60
2008,07,03,07,14,13.70
2008,07,03,07,15,13.70
2008,07,03,07,16,13.70
2008,07,03,07,17,13.70
2008,07,03,07,18,13.70
2008,07,03,07,19,13.60
2008,07,03,07,20,13.60
2008,07,03,07,21,13.60
2008,07,03,07,22,13.60
2008,07,03,07,23,13.50
2008,07,03,07,24,13.50
2008,07,03,07,25,13.50
2008,07,03,07,26,13.50
2008,07,03,07,27,13.50
2008,07,03,07,28,13.50
2008,07,03,07,29,13.50
2008,07,03,07,30,13.50
2008,07,03,07,31,13.50
2008,07,03,07,32,13.50
2008,07,03,07,33,13.40
2008,07,03,07,34,13.40
2008,07,03,07,35,13.40
2008,07,03,07,36,13.30
2008,07,03,07,37,13.30
2008,07,03,07,38,13.30
2008,07,03,07,39,13.30
2008,07,03,07,40,13.30
2008,07,03,07,41,13.30
2008,07,03,07,42,13.30
2008,07,03,07,43,13.30
2008,07,03,07,44,13.30
2008,07,03,07,45,13.30
2008,07,03,07,46,13.30
2008,07,03,07,47,13.30
2008,07,03,07,48,13.30
2008,07,03,07,49,13.30
2008,07,03,07,50,13.30
2008,07,03,07,51,13.30
2008,07,03,07,52,13.20
2008,07,03,07,53,13.20
2008,07,03,07,54,13.20
2008,07,03,07,55,13.10
2008,07,03,07,56,13.10
2008,07,03,07,57,13.10
2008,07,03,07,58,13.10
2008,07,03,07,59,13.10
2008,07,03,08,00,13.10
2008,07,03,08,01,13.10
2008,07,03,08,02,13.10
2008,07,03,08,03,13.10
2008,07,03,08,04,13.10
2008,07,03,08,05,13.10
2008,07,03,08,06,13.20
2008,07,03,08,07,13.20
2008,07,03,08,08,13.30
2008,07,03,08,09,13.30
2008,07,03,08,10,13.40
2008,07,03,08,11,13.50
2008,07,03,08,12,13.50
2008,07,03,08,13,13.50
2008,07,03,08,14,13.50
2008,07,03,08,15,13.60
2008,07,03,08,16,13.60
2008,07,03,08,17,13.60
2008,07,03,08,18,13.70
2008,07,03,08,19,13.70
2008,07,03,08,20,13.70
2008,07,03,08,21,13.70
2008,07,03,08,22,13.70
2008,07,03,08,23,13.70
2008,07,03,08,24,13.70
2008,07,03,08,25,13.70
2008,07,03,08,26,13.70
2008,07,03,08,27,13.70
2008,07,03,08,28,13.70
2008,07,03,08,29,13.70
2008,07,03,08,30,13.70
2008,07,03,08,31,13.70
2008,07,03,08,32,13.70
2008,07,03,08,33,13.70
2008,07,03,08,34,13.70
2008,07,03,08,35,13.70
2008,07,03,08,36,13.70
2008,07,03,08,37,13.70
2008,07,03,08,38,13.70
2008,07,03,08,39,13.70
2008,07,03,08,40,13.70
2008,07,03,08,41,13.70
2008,07,03,08,42,13.70
2008,07,03,08,43,13.70
2008,07,03,08,44,13.70
2008,07,03,08,45,13.70
2008,07,03,08,46,13.70
2008,07,03,08,47,13.70
2008,07,03,08,48,13.70
2008,07,03,08,49,13.70
2008,07,03,08,50,13.70
2008,07,03,08,51,13.70
2008,07,03,08,52,13.70
2008,07,03,08,53,13.70
2008,07,03,08,54,13.70
2008,07,03,08,55,13.70
2008,07,03,08,56,13.70
2008,07,03,08,57,13.80
2008,07,03,08,58,13.80
2008,07,03,08,59,13.80
2008,07,03,09,00,13.80
2008,07,03,09,01,13.80
2008,07,03,09,02,13.90
2008,07,03,09,03,13.90
2008,07,03,09,04,13.90
2008,07,03,09,05,14.00
2008,07,03,09,06,14.00
2008,07,03,09,07,14.10
2008,07,03,09,08,14.10
2008,07,03,09,09,14.10
2008,07,03,09,10,14.10
2008,07,03,09,11,14.20
2008,07,03,09,12,14.20
2008,07,03,09,13,14.20
2008,07,03,09,14,14.20
2008,07,03,09,15,14.20
2008,07,03,09,16,14.20
2008,07,03,09,17,14.20
2008,07,03,09,18,14.20
2008,07,03,09,19,14.20
2008,07,03,09,20,14.30
2008,07,03,09,21,14.30
2008,07,03,09,22,14.30
2008,07,03,09,23,14.30
2008,07,03,09,24,14.40
2008,07,03,09,25,14.40
2008,07,03,09,26,14.40
2008,07,03,09,27,14.40
2008,07,03,09,28,14.50
2008,07,03,09,29,14.50
2008,07,03,09,30,14.50
2008,07,03,09,31,14.60
2008,07,03,09,32,14.60
2008,07,03,09,33,14.60
2008,07,03,09,34,14.60
2008,07,03,09,35,14.60
2008,07,03,09,36,14.70
2008,07,03,09,37,14.70
2008,07,03,09,38,14.70
2008,07,03,09,39,14.70
2008,07,03,09,40,14.80
2008,07,03,09,41,14.70
2008,07,03,09,42,14.70
2008,07,03,09,43,14.70
2008,07,03,09,44,14.70
2008,07,03,09,45,14.60
2008,07,03,09,46,14.60
2008,07,03,09,47,14.50
2008,07,03,09,48,14.50
2008,07,03,09,49,14.50
2008,07,03,09,50,14.50
2008,07,03,09,51,14.40
2008,07,03,09,52,14.30
2008,07,03,09,53,14.30
2008,07,03,09,54,14.30
2008,07,03,09,55,14.30
2008,07,03,09,56,14.30
2008,07,03,09,57,14.30
2008,07,03,09,58,14.30
2008,07,03,09,59,14.30
2008,07,03,10,00,14.30
2008,07,03,10,01,14.40
2008,07,03,10,02,14.40
2008,07,03,10,03,14.50
2008,07,03,10,04,14.50
2008,07,03,10,05,14.50
2008,07,03,10,06,14.50
2008,07,03,10,07,14.50
2008,07,03,10,08,14.50
2008,07,03,10,09,14.40
2008,07,03,10,10,14.50
2008,07,03,10,11,14.50
2008,07,03,10,12,14.50
2008,07,03,10,13,14.50
2008,07,03,10,14,14.50
2008,07,03,10,15,14.50
2008,07,03,10,16,14.50
2008,07,03,10,17,14.50
2008,07,03,10,18,14.50
2008,07,03,10,19,14.60
2008,07,03,10,20,14.60
2008,07,03,10,21,14.70
2008,07,03,10,22,14.70
2008,07,03,10,23,14.70
2008,07,03,10,24,14.80
2008,07,03,10,25,14.80
2008,07,03,10,26,14.80
2008,07,03,10,27,14.80
2008,07,03,10,28,14.80
2008,07,03,10,29,14.80
2008,07,03,10,30,14.80
2008,07,03,10,31,14.70
2008,07,03,10,32,14.70
2008,07,03,10,33,14.70
2008,07,03,10,34,14.60
2008,07,03,10,35,14.60
2008,07,03,10,36,14.50
2008,07,03,10,37,14.50
2008,07,03,10,38,14.50
2008,07,03,10,39,14.40
2008,07,03,10,40,14.40
2008,07,03,10,41,14.50
2008,07,03,10,42,14.50
2008,07,03,10,43,14.50
2008,07,03,10,44,14.60
2008,07,03,10,45,14.60
2008,07,03,10,46,14.70
2008,07,03,10,47,14.70
2008,07,03,10,48,14.80
2008,07,03,10,49,14.80
2008,07,03,10,50,14.80
2008,07,03,10,51,14.90
2008,07,03,10,52,14.90
2008,07,03,10,53,15.00
2008,07,03,10,54,15.00
2008,07,03,10,55,15.10
2008,07,03,10,56,15.10
2008,07,03,10,57,15.20
2008,07,03,10,58,15.30
2008,07,03,10,59,15.40
2008,07,03,11,00,15.50
2008,07,03,11,01,15.50
2008,07,03,11,02,15.60
2008,07,03,11,03,15.70
2008,07,03,11,04,15.70
2008,07,03,11,05,15.70
2008,07,03,11,06,15.80
2008,07,03,11,07,15.80
2008,07,03,11,08,15.80
2008,07,03,11,09,15.80
2008,07,03,11,10,15.80
2008,07,03,11,11,15.80
2008,07,03,11,12,15.80
2008,07,03,11,13,15.80
2008,07,03,11,14,15.80
2008,07,03,11,15,15.90
2008,07,03,11,16,15.90
2008,07,03,11,17,15.90
2008,07,03,11,18,15.70
2008,07,03,11,19,15.50
2008,07,03,11,20,15.30
2008,07,03,11,21,15.10
2008,07,03,11,22,14.90
2008,07,03,11,23,14.70
2008,07,03,11,24,14.60
2008,07,03,11,25,14.40
2008,07,03,11,26,14.30
2008,07,03,11,27,14.10
2008,07,03,11,28,14.00
2008,07,03,11,29,14.00
2008,07,03,11,30,13.90
2008,07,03,11,31,13.90
2008,07,03,11,32,13.90
2008,07,03,11,33,13.80
2008,07,03,11,34,13.80
2008,07,03,11,35,13.70
2008,07,03,11,36,13.60
2008,07,03,11,37,13.50
2008,07,03,11,38,13.50
2008,07,03,11,39,13.40
2008,07,03,11,40,13.30
2008,07,03,11,41,13.30
2008,07,03,11,42,13.30
2008,07,03,11,43,13.30
2008,07,03,11,44,13.30
2008,07,03,11,45,13.30
2008,07,03,11,46,13.30
2008,07,03,11,47,13.40
2008,07,03,11,48,13.40
2008,07,03,11,49,13.40
2008,07,03,11,50,13.50
2008,07,03,11,51,13.50
2008,07,03,11,52,13.60
2008,07,03,11,53,13.70
2008,07,03,11,54,13.70
2008,07,03,11,55,13.80
2008,07,03,11,56,13.90
2008,07,03,11,57,14.00
2008,07,03,11,58,14.00
2008,07,03,11,59,14.10
2008,07,03,12,00,14.20
2008,07,03,12,01,14.20
2008,07,03,12,02,14.20
2008,07,03,12,03,14.20
2008,07,03,12,04,14.30
2008,07,03,12,05,14.30
2008,07,03,12,06,14.40
2008,07,03,12,07,14.40
2008,07,03,12,08,14.40
2008,07,03,12,09,14.50
2008,07,03,12,10,14.60
2008,07,03,12,11,14.60
2008,07,03,12,12,14.70
2008,07,03,12,13,14.70
2008,07,03,12,14,14.80
2008,07,03,12,15,14.80
2008,07,03,12,16,14.90
2008,07,03,12,17,14.90
2008,07,03,12,18,14.90
2008,07,03,12,19,14.90
2008,07,03,12,20,15.00
2008,07,03,12,21,15.00
2008,07,03,12,22,15.10
2008,07,03,12,23,15.10
2008,07,03,12,24,15.10
2008,07,03,12,25,15.00
2008,07,03,12,26,14.80
2008,07,03,12,27,14.60
2008,07,03,12,28,14.50
2008,07,03,12,29,14.40
2008,07,03,12,30,14.40
2008,07,03,12,31,14.30
2008,07,03,12,32,14.20
2008,07,03,12,33,14.10
2008,07,03,12,34,13.90
2008,07,03,12,35,13.80
2008,07,03,12,36,13.70
2008,07,03,12,37,13.70
2008,07,03,12,38,13.70
2008,07,03,12,39,13.70
2008,07,03,12,40,13.80
2008,07,03,12,41,14.00
2008,07,03,12,42,14.10
2008,07,03,12,43,14.20
2008,07,03,12,44,14.40
2008,07,03,12,45,14.70
2008,07,03,12,46,14.90
2008,07,03,12,47,15.10
2008,07,03,12,48,15.30
2008,07,03,12,49,15.40
2008,07,03,12,50,15.40
2008,07,03,12,51,15.60
2008,07,03,12,52,15.80
2008,07,03,12,53,15.90
2008,07,03,12,54,16.10
2008,07,03,12,55,16.10
2008,07,03,12,56,16.10
2008,07,03,12,57,16.00
2008,07,03,12,58,15.80
2008,07,03,12,59,15.80
2008,07,03,13,00,15.80
2008,07,03,13,01,15.80
2008,07,03,13,02,15.70
2008,07,03,13,03,15.70
2008,07,03,13,04,15.60
2008,07,03,13,05,15.60
2008,07,03,13,06,15.60
2008,07,03,13,07,15.60
2008,07,03,13,08,15.60
2008,07,03,13,09,15.70
2008,07,03,13,10,15.80
2008,07,03,13,11,15.90
2008,07,03,13,12,16.00
2008,07,03,13,13,16.10
2008,07,03,13,14,16.10
2008,07,03,13,15,16.10
2008,07,03,13,16,16.10
2008,07,03,13,17,16.10
2008,07,03,13,18,16.10
2008,07,03,13,19,16.10
2008,07,03,13,20,16.20
2008,07,03,13,21,16.20
2008,07,03,13,22,16.20
2008,07,03,13,23,16.20
2008,07,03,13,24,16.20
2008,07,03,13,25,16.30
2008,07,03,13,26,16.40
2008,07,03,13,27,16.40
2008,07,03,13,28,16.40
2008,07,03,13,29,16.30
2008,07,03,13,30,16.30
2008,07,03,13,31,16.30
2008,07,03,13,32,16.30
2008,07,03,13,33,16.30
2008,07,03,13,34,16.30
2008,07,03,13,35,16.40
2008,07,03,13,36,16.40
2008,07,03,13,37,16.50
2008,07,03,13,38,16.60
2008,07,03,13,39,16.50
2008,07,03,13,40,16.40
2008,07,03,13,41,16.30
2008,07,03,13,42,16.30
2008,07,03,13,43,16.30
2008,07,03,13,44,16.40
2008,07,03,13,45,16.50
2008,07,03,13,46,16.70
2008,07,03,13,47,16.70
2008,07,03,13,48,16.80
2008,07,03,13,49,16.80
2008,07,03,13,50,16.90
2008,07,03,13,51,17.00
2008,07,03,13,52,17.00
2008,07,03,13,53,17.10
2008,07,03,13,54,17.20
2008,07,03,13,55,17.20
2008,07,03,13,56,17.10
2008,07,03,13,57,17.10
2008,07,03,13,58,17.20
2008,07,03,13,59,17.20
2008,07,03,14,00,17.20
2008,07,03,14,01,17.30
2008,07,03,14,02,17.30
2008,07,03,14,03,17.30
2008,07,03,14,04,17.30
2008,07,03,14,05,17.30
2008,07,03,14,06,17.30
2008,07,03,14,07,17.30
2008,07,03,14,08,17.30
2008,07,03,14,09,17.30
2008,07,03,14,10,17.30
2008,07,03,14,11,17.30
2008,07,03,14,12,17.30
2008,07,03,14,13,17.40
2008,07,03,14,14,17.40
2008,07,03,14,15,17.40
2008,07,03,14,16,17.50
2008,07,03,14,17,17.60
2008,07,03,14,18,17.70
2008,07,03,14,19,17.80
2008,07,03,14,20,17.90
2008,07,03,14,21,18.10
2008,07,03,14,22,18.20
2008,07,03,14,23,18.20
2008,07,03,14,24,18.00
2008,07,03,14,25,17.90
2008,07,03,14,26,17.80
2008,07,03,14,27,17.80
2008,07,03,14,28,17.80
2008,07,03,14,29,17.80
2008,07,03,14,30,17.80
2008,07,03,14,31,17.90
2008,07,03,14,32,17.90
2008,07,03,14,33,18.00
2008,07,03,14,34,18.10
2008,07,03,14,35,18.10
2008,07,03,14,36,18.00
2008,07,03,14,37,17.90
2008,07,03,14,38,17.90
2008,07,03,14,39,17.90
2008,07,03,14,40,17.80
2008,07,03,14,41,17.80
2008,07,03,14,42,17.80
2008,07,03,14,43,17.80
2008,07,03,14,44,17.60
2008,07,03,14,45,17.40
2008,07,03,14,46,16.90
2008,07,03,14,47,16.70
2008,07,03,14,48,16.50
2008,07,03,14,49,16.20
2008,07,03,14,50,16.00
2008,07,03,14,51,15.80
2008,07,03,14,52,15.80
2008,07,03,14,53,15.70
2008,07,03,14,54,15.50
2008,07,03,14,55,15.40
2008,07,03,14,56,15.30
2008,07,03,14,57,15.30
2008,07,03,14,58,15.30
2008,07,03,14,59,15.30
2008,07,03,15,00,15.50
2008,07,03,15,01,15.60
2008,07,03,15,02,15.80
2008,07,03,15,03,16.10
2008,07,03,15,04,16.20
2008,07,03,15,05,16.40
2008,07,03,15,06,16.50
2008,07,03,15,07,16.60
2008,07,03,15,08,16.70
2008,07,03,15,09,16.70
2008,07,03,15,10,16.70
2008,07,03,15,11,16.70
2008,07,03,15,12,16.80
2008,07,03,15,13,17.00
2008,07,03,15,14,17.10
2008,07,03,15,15,17.20
2008,07,03,15,16,17.20
2008,07,03,15,17,17.30
2008,07,03,15,18,17.50
2008,07,03,15,19,17.70
2008,07,03,15,20,17.80
2008,07,03,15,21,17.90
2008,07,03,15,22,17.90
2008,07,03,15,23,17.90
2008,07,03,15,24,17.90
2008,07,03,15,25,17.90
2008,07,03,15,26,17.90
2008,07,03,15,27,17.90
2008,07,03,15,28,17.90
2008,07,03,15,29,18.00
2008,07,03,15,30,17.90
2008,07,03,15,31,17.80
2008,07,03,15,32,17.70
2008,07,03,15,33,17.70
2008,07,03,15,34,17.80
2008,07,03,15,35,17.80
2008,07,03,15,36,17.80
2008,07,03,15,37,17.90
2008,07,03,15,38,18.00
2008,07,03,15,39,18.10
2008,07,03,15,40,18.20
2008,07,03,15,41,18.20
2008,07,03,15,42,18.30
2008,07,03,15,43,18.40
2008,07,03,15,44,18.50
2008,07,03,15,45,18.50
2008,07,03,15,46,18.50
2008,07,03,15,47,18.60
2008,07,03,15,48,18.70
2008,07,03,15,49,18.80
2008,07,03,15,50,18.90
2008,07,03,15,51,19.00
2008,07,03,15,52,19.10
2008,07,03,15,53,19.30
2008,07,03,15,54,19.30
2008,07,03,15,55,19.10
2008,07,03,15,56,19.10
2008,07,03,15,57,19.10
2008,07,03,15,58,19.10
2008,07,03,15,59,19.10
2008,07,03,16,00,19.10
2008,07,03,16,01,19.00
2008,07,03,16,02,18.90
2008,07,03,16,03,18.90
2008,07,03,16,04,18.90
2008,07,03,16,05,18.90
2008,07,03,16,06,18.80
2008,07,03,16,07,18.90
2008,07,03,16,08,18.90
2008,07,03,16,09,18.90
2008,07,03,16,10,18.90
2008,07,03,16,11,18.80
2008,07,03,16,12,18.80
2008,07,03,16,13,18.70
2008,07,03,16,14,18.70
2008,07,03,16,15,18.80
2008,07,03,16,16,18.90
2008,07,03,16,17,19.00
2008,07,03,16,18,19.10
2008,07,03,16,19,19.10
2008,07,03,16,20,19.10
2008,07,03,16,21,19.10
2008,07,03,16,22,19.10
2008,07,03,16,23,19.10
2008,07,03,16,24,19.10
2008,07,03,16,25,19.10
2008,07,03,16,26,19.00
2008,07,03,16,27,19.00
2008,07,03,16,28,19.10
2008,07,03,16,29,19.10
2008,07,03,16,30,19.10
2008,07,03,16,31,19.10
2008,07,03,16,32,19.20
2008,07,03,16,33,19.10
2008,07,03,16,34,18.80
2008,07,03,16,35,18.50
2008,07,03,16,36,18.20
2008,07,03,16,37,17.90
2008,07,03,16,38,17.50
2008,07,03,16,39,17.20
2008,07,03,16,40,16.90
2008,07,03,16,41,16.60
2008,07,03,16,42,16.40
2008,07,03,16,43,16.30
2008,07,03,16,44,16.20
2008,07,03,16,45,16.10
2008,07,03,16,46,16.00
2008,07,03,16,47,15.80
2008,07,03,16,48,15.70
2008,07,03,16,49,15.50
2008,07,03,16,50,15.30
2008,07,03,16,51,15.20
2008,07,03,16,52,15.20
2008,07,03,16,53,15.20
2008,07,03,16,54,15.30
2008,07,03,16,55,15.40
2008,07,03,16,56,15.40
2008,07,03,16,57,15.50
2008,07,03,16,58,15.50
2008,07,03,16,59,15.50
2008,07,03,17,00,15.30
2008,07,03,17,01,15.10
2008,07,03,17,02,14.90
2008,07,03,17,03,14.70
2008,07,03,17,04,14.60
2008,07,03,17,05,14.50
2008,07,03,17,06,14.50
2008,07,03,17,07,14.50
2008,07,03,17,08,14.50
2008,07,03,17,09,14.60
2008,07,03,17,10,14.60
2008,07,03,17,11,14.40
2008,07,03,17,12,14.20
2008,07,03,17,13,13.90
2008,07,03,17,14,13.70
2008,07,03,17,15,13.70
2008,07,03,17,16,13.60
2008,07,03,17,17,13.50
2008,07,03,17,18,13.50
2008,07,03,17,19,13.50